Location: Grasslands National Park East Block
(49.0708°N, 106.5295°W)
Time: 04:23:14
(UTC-06:00)

Altair - All Passes

Search period start: 19 September 2019 00:00
Search period end: 29 September 2019 00:00
Orbit: 1501 x 1683 km, 47.2° (Epoch: 19 September)

Date Brightness Start Highest point End Pass type
(mag) Time Alt. Az. Time Alt. Az. Time Alt. Az.
19 Sep - 01:43:02 10° WNW 01:52:54 61° SSW 02:02:25 10° SE visible
19 Sep - 03:48:32 10° W 03:56:15 27° SW 04:03:46 10° S visible
19 Sep - 19:06:40 10° S 19:14:55 30° SE 19:23:09 10° E daylight
19 Sep - 21:08:32 10° SW 21:18:29 64° SSE 21:28:23 10° ENE visible
19 Sep - 23:12:55 10° W 23:23:08 82° S 23:33:07 10° E visible
20 Sep - 01:17:49 10° WNW 01:27:45 63° SSW 01:37:21 10° SE visible
20 Sep - 03:23:11 10° W 03:31:13 29° SW 03:39:01 10° S visible
20 Sep - 18:41:53 10° S 18:49:51 27° SE 18:57:50 10° E daylight
20 Sep - 20:43:25 10° SW 20:53:19 61° SSE 21:03:12 10° ENE visible
20 Sep - 22:47:42 10° W 22:57:55 82° S 23:07:56 10° E visible
21 Sep - 00:52:35 10° W 01:02:35 66° SSW 01:12:16 10° ESE visible
21 Sep - 02:57:51 10° W 03:06:09 31° SW 03:14:14 10° SSE visible
21 Sep - 18:17:08 10° S 18:24:48 25° SE 18:32:28 10° E daylight
21 Sep - 20:18:19 10° SW 20:28:09 59° SSE 20:38:00 10° ENE visible
21 Sep - 22:22:30 10° W 22:32:43 81° S 22:42:45 10° E visible
22 Sep - 00:27:22 10° W 00:37:25 68° SSW 00:47:10 10° ESE visible
22 Sep - 02:32:33 10° WNW 02:41:06 33° SW 02:49:25 10° SSE visible
22 Sep - 17:52:27 10° S 17:59:45 23° SE 18:07:06 10° E daylight
22 Sep - 19:53:14 10° SW 20:03:00 56° SSE 20:12:48 10° ENE visible
22 Sep - 21:57:17 10° W 22:07:30 81° S 22:17:34 10° E visible
23 Sep - 00:02:09 10° W 00:12:14 70° SSW 00:22:03 10° ESE visible
23 Sep - 02:07:15 10° WNW 02:16:02 36° SW 02:24:34 10° SSE visible
23 Sep - 17:27:49 10° S 17:34:43 21° SE 17:41:40 10° E daylight
23 Sep - 19:28:10 10° SW 19:37:51 54° SSE 19:47:35 10° ENE visible
23 Sep - 21:32:05 10° WSW 21:42:16 80° S 21:52:22 10° E visible
23 Sep - 23:36:56 10° W 23:47:03 72° SSW 23:56:55 10° ESE visible
24 Sep - 01:41:59 10° WNW 01:50:57 38° SW 01:59:41 10° SSE visible
24 Sep - 03:51:34 10° WSW 03:53:21 11° WSW 03:55:07 10° SW night (unlit)
24 Sep - 17:03:15 10° SSE 17:09:41 19° SE 17:16:11 10° E daylight
24 Sep - 19:03:07 10° SW 19:12:43 51° SSE 19:22:22 10° ENE daylight
24 Sep - 21:06:53 10° WSW 21:17:04 79° S 21:27:11 10° E visible
24 Sep - 23:11:43 10° W 23:21:52 74° SSW 23:31:47 10° ESE visible
25 Sep - 01:16:43 10° WNW 01:25:51 41° SW 01:34:46 10° SSE visible
25 Sep - 03:24:56 10° W 03:28:23 12° WSW 03:31:47 10° SW night (unlit)
25 Sep - 16:38:46 10° SSE 16:44:40 18° SE 16:50:37 10° E daylight
25 Sep - 18:38:06 10° SW 18:47:35 48° SE 18:57:09 10° ENE daylight
25 Sep - 20:41:42 10° WSW 20:51:52 78° S 21:01:59 10° E visible
25 Sep - 22:46:30 10° W 22:56:40 76° SSW 23:06:38 10° ESE visible
26 Sep - 00:51:27 10° WNW 01:00:45 43° SW 01:09:49 10° SSE visible
26 Sep - 02:58:55 10° W 03:03:24 14° WSW 03:07:50 10° SSW night (unlit)
26 Sep - 16:14:23 10° SSE 16:19:40 16° SE 16:24:59 10° E daylight
26 Sep - 18:13:06 10° SSW 18:22:27 46° SE 18:31:54 10° ENE daylight
26 Sep - 20:16:32 10° WSW 20:26:39 77° SSE 20:36:47 10° E visible
26 Sep - 22:21:17 10° W 22:31:28 77° SSW 22:41:28 10° ESE visible
27 Sep - 00:26:12 10° WNW 00:35:39 46° SW 00:44:52 10° SSE visible
27 Sep - 02:33:07 10° W 02:38:24 16° SW 02:43:37 10° SSW visible
27 Sep - 15:50:10 10° SSE 15:54:40 14° ESE 15:59:12 10° E daylight
27 Sep - 17:48:08 10° SSW 17:57:20 43° SE 18:06:41 10° ENE daylight
27 Sep - 19:51:22 10° WSW 20:01:27 75° SSE 20:11:35 10° E visible
27 Sep - 21:56:05 10° W 22:06:16 78° S 22:16:18 10° ESE visible
28 Sep - 00:00:58 10° WNW 00:10:32 49° SSW 00:19:52 10° SE visible
28 Sep - 02:07:29 10° W 02:13:24 18° SW 02:19:14 10° SSW visible
28 Sep - 15:26:12 10° SE 15:29:41 12° ESE 15:33:12 10° E daylight
28 Sep - 17:23:11 10° SSW 17:32:14 41° SE 17:41:26 10° ENE daylight
28 Sep - 19:26:12 10° WSW 19:36:15 74° SSE 19:46:22 10° E visible
28 Sep - 21:30:52 10° W 21:41:03 80° S 21:51:09 10° ESE visible
28 Sep - 23:35:44 10° WNW 23:45:24 51° SSW 23:54:52 10° SE visible
